User: anonymous   Login
Location: Unspecified
(0.0000°N, 0.0000°E)
Time: 12:32:40
(UTC+00:00)
Language:

Aussat K3 - Orbit

View from above orbital plane
View from above orbital plane
View from above satellite
View from above satellite

Ground track
Ground track

The orbit data is extracted from the following two-line orbital elements,

1 18350U 87078A   17053.48334125  .00000011  00000-0  00000+0 0  9994
2 18350  14.5855  19.3327 0009570 280.2919 281.9976  0.98904059106872
Epoch (UTC): 22 February 2017 11:36:00
Eccentricity: 0.0009570
inclination: 14.5855°
perigee height: 36133 km
apogee height: 36215 km
right ascension of ascending node: 19.3327°
argument of perigee: 280.2919°
revolutions per day: 0.98904059
mean anomaly at epoch: 281.9976°
orbit number at epoch: 10687

The dashed part of the orbit path shows where the satellite is in the earth's shadow,  

DLR